Year,Month,Day,Hour,Minute,Value (Times are PST for temperature in C)
2015,01,24,00,00,12.30
2015,01,24,00,01,12.30
2015,01,24,00,02,12.30
2015,01,24,00,03,12.30
2015,01,24,00,04,12.30
2015,01,24,00,05,12.30
2015,01,24,00,06,12.20
2015,01,24,00,07,12.20
2015,01,24,00,08,12.20
2015,01,24,00,09,12.20
2015,01,24,00,10,12.20
2015,01,24,00,11,12.20
2015,01,24,00,12,12.20
2015,01,24,00,13,12.10
2015,01,24,00,14,12.00
2015,01,24,00,15,11.80
2015,01,24,00,16,11.60
2015,01,24,00,17,11.50
2015,01,24,00,18,11.40
2015,01,24,00,19,11.30
2015,01,24,00,20,11.30
2015,01,24,00,21,11.20
2015,01,24,00,22,11.20
2015,01,24,00,23,11.10
2015,01,24,00,24,11.10
2015,01,24,00,25,11.10
2015,01,24,00,26,11.10
2015,01,24,00,27,11.10
2015,01,24,00,28,11.00
2015,01,24,00,29,11.00
2015,01,24,00,30,11.00
2015,01,24,00,31,11.00
2015,01,24,00,32,11.00
2015,01,24,00,33,11.00
2015,01,24,00,34,10.90
2015,01,24,00,35,10.90
2015,01,24,00,36,10.90
2015,01,24,00,37,10.90
2015,01,24,00,38,10.80
2015,01,24,00,39,10.80
2015,01,24,00,40,10.70
2015,01,24,00,41,10.70
2015,01,24,00,42,10.70
2015,01,24,00,43,10.70
2015,01,24,00,44,10.60
2015,01,24,00,45,10.60
2015,01,24,00,46,10.60
2015,01,24,00,47,10.50
2015,01,24,00,48,10.50
2015,01,24,00,49,10.50
2015,01,24,00,50,10.40
2015,01,24,00,51,10.40
2015,01,24,00,52,10.40
2015,01,24,00,53,10.40
2015,01,24,00,54,10.40
2015,01,24,00,55,10.40
2015,01,24,00,56,10.40
2015,01,24,00,57,10.40
2015,01,24,00,58,10.50
2015,01,24,00,59,10.60
2015,01,24,01,00,10.70
2015,01,24,01,01,10.80
2015,01,24,01,02,10.90
2015,01,24,01,03,11.00
2015,01,24,01,04,11.10
2015,01,24,01,05,11.20
2015,01,24,01,06,11.30
2015,01,24,01,07,11.30
2015,01,24,01,08,11.40
2015,01,24,01,09,11.40
2015,01,24,01,10,11.50
2015,01,24,01,11,11.50
2015,01,24,01,12,11.50
2015,01,24,01,13,11.50
2015,01,24,01,14,11.60
2015,01,24,01,15,11.60
2015,01,24,01,16,11.60
2015,01,24,01,17,11.60
2015,01,24,01,18,11.60
2015,01,24,01,19,11.60
2015,01,24,01,20,11.60
2015,01,24,01,21,11.60
2015,01,24,01,22,11.60
2015,01,24,01,23,11.60
2015,01,24,01,24,11.60
2015,01,24,01,25,11.60
2015,01,24,01,26,11.70
2015,01,24,01,27,11.70
2015,01,24,01,28,11.70
2015,01,24,01,29,11.70
2015,01,24,01,30,11.70
2015,01,24,01,31,11.70
2015,01,24,01,32,11.70
2015,01,24,01,33,11.70
2015,01,24,01,34,11.70
2015,01,24,01,35,11.70
2015,01,24,01,36,11.70
2015,01,24,01,37,11.70
2015,01,24,01,38,11.70
2015,01,24,01,39,11.70
2015,01,24,01,40,11.70
2015,01,24,01,41,11.70
2015,01,24,01,42,11.70
2015,01,24,01,43,11.60
2015,01,24,01,44,11.60
2015,01,24,01,45,11.60
2015,01,24,01,46,11.60
2015,01,24,01,47,11.60
2015,01,24,01,48,11.60
2015,01,24,01,49,11.60
2015,01,24,01,50,11.60
2015,01,24,01,51,11.60
2015,01,24,01,52,11.60
2015,01,24,01,53,11.60
2015,01,24,01,54,11.60
2015,01,24,01,55,11.50
2015,01,24,01,56,11.50
2015,01,24,01,57,11.50
2015,01,24,01,58,11.50
2015,01,24,01,59,11.50
2015,01,24,02,00,11.50
2015,01,24,02,01,11.50
2015,01,24,02,02,11.50
2015,01,24,02,03,11.50
2015,01,24,02,04,11.50
2015,01,24,02,05,11.50
2015,01,24,02,06,11.50
2015,01,24,02,07,11.50
2015,01,24,02,08,11.40
2015,01,24,02,09,11.40
2015,01,24,02,10,11.40
2015,01,24,02,11,11.40
2015,01,24,02,12,11.40
2015,01,24,02,13,11.40
2015,01,24,02,14,11.40
2015,01,24,02,15,11.40
2015,01,24,02,16,11.40
2015,01,24,02,17,11.40
2015,01,24,02,18,11.40
2015,01,24,02,19,11.30
2015,01,24,02,20,11.30
2015,01,24,02,21,11.30
2015,01,24,02,22,11.30
2015,01,24,02,23,11.30
2015,01,24,02,24,11.30
2015,01,24,02,25,11.30
2015,01,24,02,26,11.20
2015,01,24,02,27,11.20
2015,01,24,02,28,11.20
2015,01,24,02,29,11.20
2015,01,24,02,30,11.20
2015,01,24,02,31,11.20
2015,01,24,02,32,11.20
2015,01,24,02,33,11.10
2015,01,24,02,34,11.20
2015,01,24,02,35,11.20
2015,01,24,02,36,11.20
2015,01,24,02,37,11.20
2015,01,24,02,38,11.30
2015,01,24,02,39,11.30
2015,01,24,02,40,11.30
2015,01,24,02,41,11.30
2015,01,24,02,42,11.40
2015,01,24,02,43,11.40
2015,01,24,02,44,11.40
2015,01,24,02,45,11.30
2015,01,24,02,46,11.20
2015,01,24,02,47,11.10
2015,01,24,02,48,11.00
2015,01,24,02,49,10.90
2015,01,24,02,50,10.90
2015,01,24,02,51,10.80
2015,01,24,02,52,10.80
2015,01,24,02,53,10.80
2015,01,24,02,54,10.70
2015,01,24,02,55,10.70
2015,01,24,02,56,10.70
2015,01,24,02,57,10.70
2015,01,24,02,58,10.60
2015,01,24,02,59,10.60
2015,01,24,03,00,10.60
2015,01,24,03,01,10.60
2015,01,24,03,02,10.60
2015,01,24,03,03,10.60
2015,01,24,03,56,10.50
2015,01,24,03,57,10.50
2015,01,24,03,58,10.50
2015,01,24,03,59,10.50
2015,01,24,04,00,10.40
2015,01,24,04,01,10.40
2015,01,24,04,02,10.40
2015,01,24,04,03,10.40
2015,01,24,04,04,10.40
2015,01,24,04,05,10.40
2015,01,24,04,06,10.40
2015,01,24,04,07,10.40
2015,01,24,04,08,10.40
2015,01,24,04,09,10.40
2015,01,24,04,10,10.40
2015,01,24,04,11,10.40
2015,01,24,04,12,10.40
2015,01,24,04,13,10.40
2015,01,24,04,14,10.30
2015,01,24,04,15,10.30
2015,01,24,04,16,10.30
2015,01,24,04,17,10.40
2015,01,24,04,18,10.40
2015,01,24,04,19,10.40
2015,01,24,04,20,10.40
2015,01,24,04,21,10.40
2015,01,24,04,22,10.40
2015,01,24,04,23,10.50
2015,01,24,04,24,10.50
2015,01,24,04,25,10.60
2015,01,24,04,26,10.60
2015,01,24,04,27,10.60
2015,01,24,04,28,10.60
2015,01,24,04,29,10.70
2015,01,24,04,30,10.70
2015,01,24,04,31,10.70
2015,01,24,04,32,10.70
2015,01,24,04,33,10.70
2015,01,24,04,34,10.70
2015,01,24,04,35,10.80
2015,01,24,04,36,10.80
2015,01,24,04,37,10.80
2015,01,24,04,38,10.80
2015,01,24,04,39,10.80
2015,01,24,04,40,10.70
2015,01,24,04,41,10.70
2015,01,24,04,42,10.70
2015,01,24,04,43,10.70
2015,01,24,04,44,10.70
2015,01,24,04,45,10.70
2015,01,24,04,46,10.60
2015,01,24,04,47,10.60
2015,01,24,04,48,10.70
2015,01,24,04,49,10.70
2015,01,24,04,50,10.70
2015,01,24,04,51,10.70
2015,01,24,04,52,10.70
2015,01,24,04,53,10.70
2015,01,24,04,54,10.60
2015,01,24,04,55,10.60
2015,01,24,04,56,10.50
2015,01,24,04,57,10.40
2015,01,24,04,58,10.40
2015,01,24,04,59,10.30
2015,01,24,05,00,10.30
2015,01,24,05,01,10.30
2015,01,24,05,02,10.30
2015,01,24,05,03,10.20
2015,01,24,05,04,10.20
2015,01,24,05,05,10.20
2015,01,24,05,06,10.20
2015,01,24,05,07,10.20
2015,01,24,05,08,10.10
2015,01,24,05,09,10.10
2015,01,24,05,10,10.10
2015,01,24,05,11,10.10
2015,01,24,05,12,10.10
2015,01,24,05,13,10.10
2015,01,24,05,14,10.10
2015,01,24,05,15,10.10
2015,01,24,05,16,10.10
2015,01,24,05,17,10.10
2015,01,24,05,18,10.10
2015,01,24,05,19,10.10
2015,01,24,05,20,10.10
2015,01,24,05,21,10.10
2015,01,24,05,22,10.20
2015,01,24,05,23,10.30
2015,01,24,05,24,10.30
2015,01,24,05,25,10.30
2015,01,24,05,26,10.40
2015,01,24,05,27,10.40
2015,01,24,05,28,10.40
2015,01,24,05,29,10.50
2015,01,24,05,30,10.50
2015,01,24,05,31,10.50
2015,01,24,05,32,10.60
2015,01,24,05,33,10.60
2015,01,24,05,34,10.60
2015,01,24,05,35,10.60
2015,01,24,05,36,10.60
2015,01,24,05,37,10.60
2015,01,24,05,38,10.60
2015,01,24,05,39,10.60
2015,01,24,05,40,10.60
2015,01,24,05,41,10.60
2015,01,24,05,42,10.60
2015,01,24,05,43,10.60
2015,01,24,05,44,10.60
2015,01,24,05,45,10.60
2015,01,24,05,46,10.60
2015,01,24,05,47,10.60
2015,01,24,05,48,10.60
2015,01,24,05,49,10.60
2015,01,24,05,50,10.50
2015,01,24,05,51,10.50
2015,01,24,05,52,10.50
2015,01,24,05,53,10.50
2015,01,24,05,54,10.50
2015,01,24,05,55,10.40
2015,01,24,05,56,10.40
2015,01,24,05,57,10.40
2015,01,24,05,58,10.40
2015,01,24,05,59,10.40
2015,01,24,06,00,10.40
2015,01,24,06,01,10.40
2015,01,24,06,02,10.40
2015,01,24,06,03,10.40
2015,01,24,06,04,10.40
2015,01,24,06,05,10.40
2015,01,24,06,06,10.40
2015,01,24,06,07,10.40
2015,01,24,06,08,10.40
2015,01,24,06,09,10.40
2015,01,24,06,10,10.40
2015,01,24,06,11,10.40
2015,01,24,06,12,10.40
2015,01,24,06,13,10.40
2015,01,24,06,14,10.30
2015,01,24,06,15,10.30
2015,01,24,06,16,10.30
2015,01,24,06,17,10.30
2015,01,24,06,18,10.30
2015,01,24,06,19,10.30
2015,01,24,06,20,10.30
2015,01,24,06,21,10.30
2015,01,24,06,22,10.30
2015,01,24,06,23,10.40
2015,01,24,06,24,10.40
2015,01,24,06,25,10.40
2015,01,24,06,26,10.40
2015,01,24,06,27,10.40
2015,01,24,06,28,10.40
2015,01,24,06,29,10.40
2015,01,24,06,30,10.40
2015,01,24,06,31,10.40
2015,01,24,06,32,10.40
2015,01,24,06,33,10.40
2015,01,24,06,34,10.40
2015,01,24,06,35,10.40
2015,01,24,06,36,10.40
2015,01,24,06,37,10.40
2015,01,24,06,38,10.40
2015,01,24,06,39,10.40
2015,01,24,06,40,10.40
2015,01,24,06,41,10.40
2015,01,24,06,42,10.40
2015,01,24,06,43,10.40
2015,01,24,06,44,10.40
2015,01,24,06,45,10.40
2015,01,24,06,46,10.40
2015,01,24,06,47,10.40
2015,01,24,06,48,10.40
2015,01,24,06,49,10.40
2015,01,24,06,50,10.40
2015,01,24,06,51,10.40
2015,01,24,06,52,10.40
2015,01,24,06,53,10.40
2015,01,24,06,54,10.40
2015,01,24,06,55,10.40
2015,01,24,06,56,10.40
2015,01,24,06,57,10.40
2015,01,24,06,58,10.40
2015,01,24,06,59,10.40
2015,01,24,07,00,10.40
2015,01,24,07,01,10.40
2015,01,24,07,02,10.30
2015,01,24,07,03,10.30
2015,01,24,07,04,10.30
2015,01,24,07,05,10.30
2015,01,24,07,06,10.30
2015,01,24,07,07,10.30
2015,01,24,07,08,10.30
2015,01,24,07,09,10.30
2015,01,24,07,10,10.30
2015,01,24,07,11,10.30
2015,01,24,07,12,10.30
2015,01,24,07,13,10.30
2015,01,24,07,14,10.30
2015,01,24,07,15,10.30
2015,01,24,07,16,10.20
2015,01,24,07,17,10.20
2015,01,24,07,18,10.20
2015,01,24,07,19,10.20
2015,01,24,07,20,10.20
2015,01,24,07,21,10.20
2015,01,24,07,22,10.20
2015,01,24,07,23,10.20
2015,01,24,07,24,10.20
2015,01,24,07,25,10.20
2015,01,24,07,26,10.20
2015,01,24,07,27,10.20
2015,01,24,07,28,10.20
2015,01,24,07,29,10.20
2015,01,24,07,30,10.20
2015,01,24,07,31,10.20
2015,01,24,07,32,10.20
2015,01,24,07,33,10.20
2015,01,24,07,34,10.20
2015,01,24,07,35,10.20
2015,01,24,07,36,10.20
2015,01,24,07,37,10.20
2015,01,24,07,38,10.20
2015,01,24,07,39,10.20
2015,01,24,07,40,10.20
2015,01,24,07,41,10.20
2015,01,24,07,42,10.10
2015,01,24,07,43,10.10
2015,01,24,07,44,10.10
2015,01,24,07,45,10.10
2015,01,24,07,46,10.10
2015,01,24,07,47,10.10
2015,01,24,07,48,10.10
2015,01,24,07,49,10.20
2015,01,24,07,50,10.10
2015,01,24,07,51,10.10
2015,01,24,07,52,10.20
2015,01,24,07,53,10.20
2015,01,24,07,54,10.20
2015,01,24,07,55,10.20
2015,01,24,07,56,10.20
2015,01,24,07,57,10.20
2015,01,24,07,58,10.20
2015,01,24,07,59,10.20
2015,01,24,08,00,10.20
2015,01,24,08,01,10.20
2015,01,24,08,02,10.20
2015,01,24,08,03,10.20
2015,01,24,08,04,10.20
2015,01,24,08,05,10.20
2015,01,24,08,06,10.20
2015,01,24,08,07,10.20
2015,01,24,08,08,10.20
2015,01,24,08,09,10.20
2015,01,24,08,10,10.20
2015,01,24,08,11,10.20
2015,01,24,08,12,10.20
2015,01,24,08,13,10.20
2015,01,24,08,14,10.20
2015,01,24,08,15,10.20
2015,01,24,08,16,10.20
2015,01,24,08,17,10.20
2015,01,24,08,18,10.20
2015,01,24,08,19,10.30
2015,01,24,08,20,10.30
2015,01,24,08,21,10.30
2015,01,24,08,22,10.30
2015,01,24,08,23,10.30
2015,01,24,08,24,10.30
2015,01,24,08,25,10.30
2015,01,24,08,26,10.30
2015,01,24,08,27,10.30
2015,01,24,08,28,10.30
2015,01,24,08,29,10.30
2015,01,24,08,30,10.30
2015,01,24,08,31,10.30
2015,01,24,08,32,10.30
2015,01,24,08,33,10.30
2015,01,24,08,34,10.30
2015,01,24,08,35,10.30
2015,01,24,08,36,10.30
2015,01,24,08,37,10.30
2015,01,24,08,38,10.30
2015,01,24,08,39,10.30
2015,01,24,08,40,10.30
2015,01,24,08,41,10.30
2015,01,24,08,42,10.30
2015,01,24,08,43,10.30
2015,01,24,08,44,10.30
2015,01,24,08,45,10.30
2015,01,24,08,46,10.30
2015,01,24,08,47,10.30
2015,01,24,08,48,10.30
2015,01,24,08,49,10.30
2015,01,24,08,50,10.30
2015,01,24,08,51,10.30
2015,01,24,08,52,10.30
2015,01,24,08,53,10.30
2015,01,24,08,54,10.30
2015,01,24,08,55,10.30
2015,01,24,08,56,10.30
2015,01,24,08,57,10.30
2015,01,24,08,58,10.30
2015,01,24,08,59,10.30
2015,01,24,09,00,10.30
2015,01,24,09,01,10.30
2015,01,24,09,02,10.30
2015,01,24,09,03,10.30
2015,01,24,09,04,10.30
2015,01,24,09,05,10.30
2015,01,24,09,06,10.30
2015,01,24,09,07,10.30
2015,01,24,09,08,10.30
2015,01,24,09,09,10.30
2015,01,24,09,10,10.30
2015,01,24,09,11,10.30
2015,01,24,09,12,10.30
2015,01,24,09,13,10.30
2015,01,24,09,14,10.30
2015,01,24,09,15,10.30
2015,01,24,09,16,10.30
2015,01,24,09,17,10.30
2015,01,24,09,18,10.30
2015,01,24,09,19,10.30
2015,01,24,09,20,10.30
2015,01,24,09,21,10.30
2015,01,24,09,22,10.30
2015,01,24,09,23,10.40
2015,01,24,09,24,10.40
2015,01,24,09,25,10.40
2015,01,24,09,26,10.40
2015,01,24,09,27,10.40
2015,01,24,09,28,10.40
2015,01,24,09,29,10.40
2015,01,24,09,30,10.40
2015,01,24,09,31,10.40
2015,01,24,09,32,10.40
2015,01,24,09,33,10.40
2015,01,24,09,34,10.40
2015,01,24,09,35,10.40
2015,01,24,09,36,10.40
2015,01,24,09,37,10.40
2015,01,24,09,38,10.40
2015,01,24,09,39,10.40
2015,01,24,09,40,10.40
2015,01,24,09,41,10.40
2015,01,24,09,42,10.40
2015,01,24,09,43,10.40
2015,01,24,09,44,10.40
2015,01,24,09,45,10.40
2015,01,24,09,46,10.40
2015,01,24,09,47,10.40
2015,01,24,09,48,10.40
2015,01,24,09,49,10.40
2015,01,24,09,50,10.40
2015,01,24,09,51,10.40
2015,01,24,09,52,10.50
2015,01,24,09,53,10.50
2015,01,24,09,54,10.50
2015,01,24,09,55,10.50
2015,01,24,09,56,10.50
2015,01,24,09,57,10.50
2015,01,24,09,58,10.50
2015,01,24,09,59,10.50
2015,01,24,10,00,10.50
2015,01,24,10,01,10.50
2015,01,24,10,02,10.50
2015,01,24,10,03,10.50
2015,01,24,10,04,10.50
2015,01,24,10,05,10.50
2015,01,24,10,06,10.50
2015,01,24,10,07,10.50
2015,01,24,10,08,10.50
2015,01,24,10,09,10.50
2015,01,24,10,10,10.50
2015,01,24,10,11,10.50
2015,01,24,10,12,10.50
2015,01,24,10,13,10.50
2015,01,24,10,14,10.60
2015,01,24,10,15,10.60
2015,01,24,10,16,10.60
2015,01,24,10,17,10.60
2015,01,24,10,18,10.60
2015,01,24,10,19,10.60
2015,01,24,10,20,10.60
2015,01,24,10,21,10.60
2015,01,24,10,22,10.60
2015,01,24,10,23,10.60
2015,01,24,10,24,10.60
2015,01,24,10,25,10.60
2015,01,24,10,26,10.60
2015,01,24,10,27,10.60
2015,01,24,10,28,10.60
2015,01,24,10,29,10.70
2015,01,24,10,30,10.70
2015,01,24,10,31,10.70
2015,01,24,10,32,10.70
2015,01,24,10,33,10.70
2015,01,24,10,34,10.70
2015,01,24,10,35,10.70
2015,01,24,10,36,10.70
2015,01,24,10,37,10.70
2015,01,24,10,38,10.70
2015,01,24,10,39,10.70
2015,01,24,10,40,10.70
2015,01,24,10,41,10.70
2015,01,24,10,42,10.70
2015,01,24,10,43,10.70
2015,01,24,10,44,10.70
2015,01,24,10,45,10.70
2015,01,24,10,46,10.70
2015,01,24,10,47,10.80
2015,01,24,10,48,10.80
2015,01,24,10,49,10.70
2015,01,24,10,50,10.70
2015,01,24,10,51,10.70
2015,01,24,10,52,10.70
2015,01,24,10,53,10.70
2015,01,24,10,54,10.70
2015,01,24,10,55,10.70
2015,01,24,10,56,10.70
2015,01,24,10,57,10.70
2015,01,24,10,58,10.70
2015,01,24,10,59,10.70
2015,01,24,11,00,10.70
2015,01,24,11,01,10.70
2015,01,24,11,02,10.70
2015,01,24,11,03,10.70
2015,01,24,11,04,10.60
2015,01,24,11,05,10.60
2015,01,24,11,06,10.60
2015,01,24,11,07,10.60
2015,01,24,11,08,10.60
2015,01,24,11,09,10.50
2015,01,24,11,10,10.50
2015,01,24,11,11,10.50
2015,01,24,11,12,10.50
2015,01,24,11,13,10.50
2015,01,24,11,14,10.50
2015,01,24,11,15,10.50
2015,01,24,11,16,10.50
2015,01,24,11,17,10.50
2015,01,24,11,18,10.60
2015,01,24,11,19,10.60
2015,01,24,11,20,10.60
2015,01,24,11,21,10.60
2015,01,24,11,22,10.60
2015,01,24,11,23,10.60
2015,01,24,11,24,10.60
2015,01,24,11,25,10.60
2015,01,24,11,26,10.60
2015,01,24,11,27,10.60
2015,01,24,11,28,10.60
2015,01,24,11,29,10.60
2015,01,24,11,30,10.60
2015,01,24,11,31,10.70
2015,01,24,11,32,10.70
2015,01,24,11,33,10.70
2015,01,24,11,34,10.70
2015,01,24,11,35,10.70
2015,01,24,11,36,10.70
2015,01,24,11,37,10.70
2015,01,24,11,38,10.70
2015,01,24,11,39,10.70
2015,01,24,11,40,10.70
2015,01,24,11,41,10.70
2015,01,24,11,42,10.70
2015,01,24,11,43,10.70
2015,01,24,11,44,10.70
2015,01,24,11,45,10.70
2015,01,24,11,46,10.70
2015,01,24,11,47,10.70
2015,01,24,11,48,10.70
2015,01,24,11,49,10.70
2015,01,24,11,50,10.80
2015,01,24,11,51,10.80
2015,01,24,11,52,10.80
2015,01,24,11,53,10.80
2015,01,24,11,54,10.80
2015,01,24,11,55,10.80
2015,01,24,11,56,10.80
2015,01,24,11,57,10.80
2015,01,24,11,58,10.80
2015,01,24,11,59,10.80
2015,01,24,12,00,10.80
2015,01,24,12,01,10.90
2015,01,24,12,02,10.90
2015,01,24,12,03,10.90
2015,01,24,12,04,10.90
2015,01,24,12,05,10.90
2015,01,24,12,06,10.90
2015,01,24,12,07,10.90
2015,01,24,12,08,10.90
2015,01,24,12,09,10.90
2015,01,24,12,10,10.90
2015,01,24,12,11,10.90
2015,01,24,12,12,10.90
2015,01,24,12,13,10.90
2015,01,24,12,14,10.90
2015,01,24,12,15,10.90
2015,01,24,12,16,10.90
2015,01,24,12,17,10.90
2015,01,24,12,18,10.90
2015,01,24,12,19,10.90
2015,01,24,12,20,10.90
2015,01,24,12,21,11.00
2015,01,24,12,22,11.00
2015,01,24,12,23,11.00
2015,01,24,12,24,11.00
2015,01,24,12,25,11.00
2015,01,24,12,26,11.00
2015,01,24,12,27,11.00
2015,01,24,12,28,11.00
2015,01,24,12,29,11.00
2015,01,24,12,30,11.00
2015,01,24,12,31,11.00
2015,01,24,12,32,11.00
2015,01,24,12,33,11.00
2015,01,24,12,34,11.00
2015,01,24,12,35,11.00
2015,01,24,12,36,11.00
2015,01,24,12,37,11.00
2015,01,24,12,38,11.00
2015,01,24,12,39,11.00
2015,01,24,12,40,11.00
2015,01,24,12,41,11.00
2015,01,24,12,42,11.00
2015,01,24,12,43,11.00
2015,01,24,12,44,11.00
2015,01,24,12,45,11.00
2015,01,24,12,46,11.00
2015,01,24,12,47,11.00
2015,01,24,12,48,11.00
2015,01,24,12,49,11.00
2015,01,24,12,50,11.00
2015,01,24,12,51,11.00
2015,01,24,12,52,11.00
2015,01,24,12,53,11.00
2015,01,24,12,54,11.10
2015,01,24,12,55,11.10
2015,01,24,12,56,11.10
2015,01,24,12,57,11.00
2015,01,24,12,58,11.00
2015,01,24,12,59,11.00
2015,01,24,13,00,11.10
2015,01,24,13,01,11.10
2015,01,24,13,02,11.10
2015,01,24,13,03,11.10
2015,01,24,13,04,11.10
2015,01,24,13,05,11.10
2015,01,24,13,06,11.10
2015,01,24,13,07,11.10
2015,01,24,13,08,11.10
2015,01,24,13,09,11.10
2015,01,24,13,10,11.10
2015,01,24,13,11,11.10
2015,01,24,13,12,11.10
2015,01,24,13,13,11.10
2015,01,24,13,14,11.10
2015,01,24,13,15,11.10
2015,01,24,13,16,11.10
2015,01,24,13,17,11.10
2015,01,24,13,18,11.10
2015,01,24,13,19,11.10
2015,01,24,13,20,11.10
2015,01,24,13,21,11.10
2015,01,24,13,22,11.10
2015,01,24,13,23,11.10
2015,01,24,13,24,11.10
2015,01,24,13,25,11.10
2015,01,24,13,26,11.10
2015,01,24,13,27,11.10
2015,01,24,13,28,11.10
2015,01,24,13,29,11.10
2015,01,24,13,30,11.10
2015,01,24,13,31,11.10
2015,01,24,13,32,11.10
2015,01,24,13,33,11.10
2015,01,24,13,34,11.10
2015,01,24,13,35,11.20
2015,01,24,13,36,11.20
2015,01,24,13,37,11.20
2015,01,24,13,38,11.20
2015,01,24,13,39,11.20
2015,01,24,13,40,11.20
2015,01,24,13,41,11.30
2015,01,24,13,42,11.30
2015,01,24,13,43,11.30
2015,01,24,13,44,11.30
2015,01,24,13,45,11.30
2015,01,24,13,46,11.40
2015,01,24,13,47,11.40
2015,01,24,13,48,11.40
2015,01,24,13,49,11.40
2015,01,24,13,50,11.40
2015,01,24,13,51,11.40
2015,01,24,13,52,11.50
2015,01,24,13,53,11.50
2015,01,24,13,54,11.50
2015,01,24,13,55,11.50
2015,01,24,13,56,11.50
2015,01,24,13,57,11.50
2015,01,24,13,58,11.50
2015,01,24,13,59,11.50
2015,01,24,14,00,11.50
2015,01,24,14,01,11.50
2015,01,24,14,02,11.60
2015,01,24,14,03,11.60
2015,01,24,14,04,11.60
2015,01,24,14,05,11.60
2015,01,24,14,06,11.60
2015,01,24,14,07,11.60
2015,01,24,14,08,11.60
2015,01,24,14,09,11.60
2015,01,24,14,10,11.60
2015,01,24,14,11,11.60
2015,01,24,14,12,11.60
2015,01,24,14,13,11.60
2015,01,24,14,14,11.60
2015,01,24,14,15,11.60
2015,01,24,14,16,11.60
2015,01,24,14,17,11.60
2015,01,24,14,18,11.60
2015,01,24,14,19,11.60
2015,01,24,14,20,11.70
2015,01,24,14,21,11.70
2015,01,24,14,22,11.70
2015,01,24,14,23,11.60
2015,01,24,14,24,11.70
2015,01,24,14,25,11.70
2015,01,24,14,26,11.70
2015,01,24,14,27,11.70
2015,01,24,14,28,11.70
2015,01,24,14,29,11.70
2015,01,24,14,30,11.70
2015,01,24,14,31,11.70
2015,01,24,14,32,11.70
2015,01,24,14,33,11.70
2015,01,24,14,34,11.70
2015,01,24,14,35,11.70
2015,01,24,14,36,11.70
2015,01,24,14,37,11.70
2015,01,24,14,38,11.70
2015,01,24,14,39,11.70
2015,01,24,14,40,11.70
2015,01,24,14,41,11.70
2015,01,24,14,42,11.70
2015,01,24,14,43,11.70
2015,01,24,14,44,11.70
2015,01,24,14,45,11.70
2015,01,24,14,46,11.70
2015,01,24,14,47,11.70
2015,01,24,14,48,11.70
2015,01,24,14,49,11.70
2015,01,24,14,50,11.70
2015,01,24,14,51,11.70
2015,01,24,14,52,11.70
2015,01,24,14,53,11.70
2015,01,24,14,54,11.70
2015,01,24,14,55,11.80
2015,01,24,14,56,11.80
2015,01,24,14,57,11.80
2015,01,24,14,58,11.80
2015,01,24,14,59,11.80
2015,01,24,15,00,11.80
2015,01,24,15,01,11.80
2015,01,24,15,02,11.80
2015,01,24,15,03,11.80
2015,01,24,15,04,11.90
2015,01,24,15,05,11.90
2015,01,24,15,06,11.90
2015,01,24,15,07,11.90
2015,01,24,15,08,11.90
2015,01,24,15,09,11.90
2015,01,24,15,10,11.90
2015,01,24,15,11,11.90
2015,01,24,15,12,11.90
2015,01,24,15,13,11.90
2015,01,24,15,14,11.90
2015,01,24,15,15,11.90
2015,01,24,15,16,11.90
2015,01,24,15,17,11.90
2015,01,24,15,18,11.90
2015,01,24,15,19,11.90
2015,01,24,15,20,11.90
2015,01,24,15,21,11.90
2015,01,24,15,22,11.90
2015,01,24,15,23,11.90
2015,01,24,15,24,11.90
2015,01,24,15,25,11.90
2015,01,24,15,26,11.90
2015,01,24,15,27,11.90
2015,01,24,15,28,11.90
2015,01,24,15,29,11.90
2015,01,24,15,30,11.90
2015,01,24,15,31,11.90
2015,01,24,15,32,11.90
2015,01,24,15,33,11.90
2015,01,24,15,34,11.90
2015,01,24,15,35,11.90
2015,01,24,15,36,11.90
2015,01,24,15,37,11.90
2015,01,24,15,38,11.90
2015,01,24,15,39,11.90
2015,01,24,15,40,11.90
2015,01,24,15,41,11.90
2015,01,24,15,42,11.90
2015,01,24,15,43,11.90
2015,01,24,15,44,11.90
2015,01,24,15,45,11.90
2015,01,24,15,46,11.90
2015,01,24,15,47,11.90
2015,01,24,15,48,11.90
2015,01,24,15,49,11.90
2015,01,24,15,50,12.00
2015,01,24,15,51,12.00
2015,01,24,15,52,12.10
2015,01,24,15,53,12.20
2015,01,24,15,54,12.20
2015,01,24,15,55,12.20
2015,01,24,15,56,12.30
2015,01,24,15,57,12.30
2015,01,24,15,58,12.40
2015,01,24,15,59,12.40
2015,01,24,16,00,12.30
2015,01,24,16,01,12.30
2015,01,24,16,02,12.30
2015,01,24,16,03,12.30
2015,01,24,16,04,12.20
2015,01,24,16,05,12.20
2015,01,24,16,06,12.20
2015,01,24,16,07,12.20
2015,01,24,16,08,12.20
2015,01,24,16,09,12.20
2015,01,24,16,10,12.20
2015,01,24,16,11,12.20
2015,01,24,16,12,12.20
2015,01,24,16,13,12.20
2015,01,24,16,14,12.30
2015,01,24,16,15,12.30
2015,01,24,16,16,12.30
2015,01,24,16,17,12.30
2015,01,24,16,18,12.20
2015,01,24,16,19,12.20
2015,01,24,16,20,12.20
2015,01,24,16,21,12.10
2015,01,24,16,22,12.10
2015,01,24,16,23,12.10
2015,01,24,16,24,12.10
2015,01,24,16,25,12.00
2015,01,24,16,26,12.00
2015,01,24,16,27,12.00
2015,01,24,16,28,11.90
2015,01,24,16,29,11.90
2015,01,24,16,30,11.90
2015,01,24,16,31,11.90
2015,01,24,16,32,11.80
2015,01,24,16,33,11.80
2015,01,24,16,34,11.80
2015,01,24,16,35,11.80
2015,01,24,16,36,11.80
2015,01,24,16,37,11.80
2015,01,24,16,38,11.80
2015,01,24,16,39,11.70
2015,01,24,16,40,11.70
2015,01,24,16,41,11.70
2015,01,24,16,42,11.70
2015,01,24,16,43,11.70
2015,01,24,16,44,11.70
2015,01,24,16,45,11.60
2015,01,24,16,46,11.60
2015,01,24,16,47,11.60
2015,01,24,16,48,11.60
2015,01,24,16,49,11.60
2015,01,24,16,50,11.50
2015,01,24,16,51,11.50
2015,01,24,16,52,11.40
2015,01,24,16,53,11.40
2015,01,24,16,54,11.40
2015,01,24,16,55,11.40
2015,01,24,16,56,11.40
2015,01,24,16,57,11.30
2015,01,24,16,58,11.30
2015,01,24,16,59,11.30
2015,01,24,17,00,11.30
2015,01,24,17,01,11.30
2015,01,24,17,02,11.30
2015,01,24,17,03,11.30
2015,01,24,17,04,11.30
2015,01,24,17,05,11.30
2015,01,24,17,06,11.20
2015,01,24,17,07,11.30
2015,01,24,17,08,11.30
2015,01,24,17,09,11.30
2015,01,24,17,10,11.30
2015,01,24,17,11,11.20
2015,01,24,17,12,11.20
2015,01,24,17,13,11.20
2015,01,24,17,14,11.20
2015,01,24,17,15,11.20
2015,01,24,17,16,11.20
2015,01,24,17,17,11.20
2015,01,24,17,18,11.10
2015,01,24,17,19,10.90
2015,01,24,17,20,10.80
2015,01,24,17,21,10.70
2015,01,24,17,22,10.60
2015,01,24,17,23,10.60
2015,01,24,17,24,10.50
2015,01,24,17,25,10.50
2015,01,24,17,26,10.40
2015,01,24,17,27,10.40
2015,01,24,17,28,10.40
2015,01,24,17,29,10.40
2015,01,24,17,30,10.40
2015,01,24,17,31,10.30
2015,01,24,17,32,10.30
2015,01,24,17,33,10.30
2015,01,24,17,34,10.30
2015,01,24,17,35,10.30
2015,01,24,17,36,10.30
2015,01,24,17,37,10.20
2015,01,24,17,38,10.20
2015,01,24,17,39,10.20
2015,01,24,17,40,10.20
2015,01,24,17,41,10.20
2015,01,24,17,42,10.30
2015,01,24,17,43,10.20
2015,01,24,17,44,10.20
2015,01,24,17,45,10.20
2015,01,24,17,46,10.20
2015,01,24,17,47,10.10
2015,01,24,17,48,10.10
2015,01,24,17,49,10.10
2015,01,24,17,50,10.10
2015,01,24,17,51,10.10
2015,01,24,17,52,10.10
2015,01,24,17,53,10.20
2015,01,24,17,54,10.20
2015,01,24,17,55,10.20
2015,01,24,17,56,10.20
2015,01,24,17,57,10.20
2015,01,24,17,58,10.20
2015,01,24,17,59,10.20
2015,01,24,18,00,10.20
2015,01,24,18,01,10.20
2015,01,24,18,02,10.20
2015,01,24,18,03,10.20
2015,01,24,18,04,10.20
2015,01,24,18,05,10.30
2015,01,24,18,06,10.30
2015,01,24,18,07,10.30
2015,01,24,18,08,10.30
2015,01,24,18,09,10.40
2015,01,24,18,10,10.40
2015,01,24,18,11,10.40